{"data":{"norad_id":64830,"epoch":"2026-09-21T20:40:16.718304Z","epoch_age_seconds":53693,"freshness":"FRESH","line1":"1 64830U 25151Q   26264.86130461 -.00001105  00000+0 -11601-3 0  9994","line2":"2 64830  51.9006 158.1188 0000861 101.1180 258.9880 14.79934304 64287","mean_motion":14.79934304,"eccentricity":8.61e-5,"inclination_deg":51.9006,"raan_deg":158.1188,"arg_perigee_deg":101.118,"mean_anomaly_deg":258.988,"bstar":-0.00011601,"rev_number":6428,"period_min":97.301616437158,"perigee_km":628.9281525142,"apogee_km":630.1348730321,"semimajor_km":7007.6685127731,"source":"CELESTRAK","updated_at":"2026-09-22T09:00:29.977006Z"}}